User: anonymous   Login
Location: Dumpton Point
(51.3500°N, 1.4433°E)
Time: 17:34:38
(UTC+00:00)
Language:

CZ-4C R/B - Orbit

View from above orbital plane
View from above orbital plane
View from above satellite
View from above satellite

Ground track
Ground track

The orbit data is extracted from the following two-line orbital elements,

1 36416U 10009D   20195.55242522 -.00000101 +00000-0 +38255-5 0  9995
2 36416 063.4249 130.8008 0497500 355.2911 004.3535 13.69571307517927
Epoch (UTC): 13 July 2020 13:15:29
Eccentricity: 0.0497500
inclination: 63.4249°
perigee height: 634 km
apogee height: 1368 km
right ascension of ascending node: 130.8008°
argument of perigee: 355.2911°
revolutions per day: 13.69571307
mean anomaly at epoch: 4.3535°
orbit number at epoch: 51792

The dashed part of the orbit path shows where the satellite is in the earth's shadow,  

DLR